[ hide orbit diagram ]
For accurate long-term ephemerides, please instead use our Horizons system.This orbit viewer was implemented using two-body methods, and hence should not be used for determining accurate long-term trajectories (over several years or decades) or planetary encounter circumstances.
Orbital Elements at Epoch 2459000.5 (2020-May-31.0) TDB
Reference: JPL 15 (heliocentric ecliptic J2000)
Element | Value | Uncertainty (1-sigma) | Units |
e | .1574194350098457 | 5.2932e-08 | |
a | 2.599651107625136 | 2.2019e-08 | au |
q | 2.190415499040067 | 1.3496e-07 | au |
i | 6.24216684112969 | 4.4161e-06 | deg |
node | 143.3107236663995 | 5.5782e-05 | deg |
peri | 129.0571602068682 | 5.8652e-05 | deg |
M | 138.2187116718971 | 1.9472e-05 | deg |
tp | 2458412.692170836085 (2018-Oct-21.19217084) | 7.9505e-05 | TDB |
period | 1530.985319855462 4.19 | 1.9451e-05 5.325e-08 | d yr |
n | .2351426857796305 | 2.9875e-09 | deg/d |
Q | 3.008886716210204 | 2.5485e-08 | au |
|
| | Orbit Determination Parameters
Additional Information
|
[ show covariance matrix ]
Physical Parameter Table
Parameter |
Symbol |
Value |
Units |
Sigma |
Reference |
Notes |
absolute magnitude |
H |
16.7 |
|
n/a |
MPO450319 |
|
|
351826 (2006 PF40) Discovered 2006-Aug-14 by NEAT at Palomar |
Reference: 20130127/Numbers.arc | Last Updated: 2013-01-31 |
|
[ show close-approach data ]
|